UKV6452 YBBN-YMML

Flight info

Callsign UKV6452
Flight time 1h 57m
Altitude 40000
Route BN H91 SANEG Q35 DORSU H119 ML
Aircraft B788/H-SDE1E2E3FGHIJ2J3J4J5M1RWXY/LB1D1

Departure

Time 2026-05-07 17:25
Airport Brisbane International Airport (YBBN)

Arrival

Time 2026-05-07 19:23
Airport Melbourne Airport (YMML)
Time Latitude Longitude Altitude Speed Heading
2026-05-07 16:46 -27.38332 153.12295 27 ft 0 kts 289°
2026-05-07 17:13 -27.38332 153.12296 27 ft 1 kts 289°
2026-05-07 17:14 -27.38340 153.12321 27 ft 4 kts 289°
2026-05-07 17:14 -27.38348 153.12347 26 ft 2 kts 289°
2026-05-07 17:14 -27.38350 153.12369 26 ft 4 kts 253°
2026-05-07 17:14 -27.38345 153.12391 26 ft 4 kts 274°
2026-05-07 17:15 -27.38355 153.12409 24 ft 3 kts 349°
2026-05-07 17:15 -27.38380 153.12414 27 ft 4 kts 349°
2026-05-07 17:15 -27.38385 153.12415 27 ft 0 kts 349°
2026-05-07 17:19 -27.38372 153.12412 27 ft 5 kts 349°
2026-05-07 17:20 -27.38328 153.12405 27 ft 8 kts 355°
2026-05-07 17:20 -27.38282 153.12417 27 ft 2 kts 37°
2026-05-07 17:20 -27.38280 153.12427 27 ft 3 kts 67°
2026-05-07 17:20 -27.38285 153.12479 27 ft 11 kts 110°
2026-05-07 17:21 -27.38334 153.12559 27 ft 13 kts 134°
2026-05-07 17:21 -27.38374 153.12650 27 ft 13 kts 82°
2026-05-07 17:21 -27.38315 153.12715 27 ft 13 kts 34°
2026-05-07 17:21 -27.38229 153.12768 27 ft 15 kts 27°
2026-05-07 17:22 -27.38129 153.12826 27 ft 18 kts 28°
2026-05-07 17:22 -27.38011 153.12893 27 ft 20 kts 27°
2026-05-07 17:22 -27.37881 153.12967 27 ft 22 kts 27°
2026-05-07 17:22 -27.37740 153.13048 27 ft 24 kts 27°
2026-05-07 17:23 -27.37588 153.13135 27 ft 25 kts 26°
2026-05-07 17:23 -27.37448 153.13218 27 ft 13 kts 30°
2026-05-07 17:23 -27.37359 153.13267 27 ft 15 kts 26°
2026-05-07 17:23 -27.37322 153.13332 27 ft 6 kts 97°
2026-05-07 17:24 -27.37347 153.13381 28 ft 11 kts 127°
2026-05-07 17:24 -27.37429 153.13432 28 ft 15 kts 172°
2026-05-07 17:24 -27.37526 153.13398 28 ft 16 kts 207°
2026-05-07 17:24 -27.37541 153.13389 27 ft 0 kts 207°
2026-05-07 17:25 -27.37646 153.13328 28 ft 57 kts 206°
2026-05-07 17:25 -27.38292 153.12959 30 ft 145 kts 207°
2026-05-07 17:25 -27.39323 153.12404 651 ft 158 kts 202°
2026-05-07 17:26 -27.40304 153.11856 1578 ft 174 kts 209°
2026-05-07 17:26 -27.41470 153.11142 1998 ft 205 kts 207°
2026-05-07 17:26 -27.42848 153.10619 1682 ft 214 kts 181°
2026-05-07 17:26 -27.44276 153.11078 1449 ft 214 kts 154°
2026-05-07 17:27 -27.45537 153.11999 1530 ft 218 kts 149°
2026-05-07 17:27 -27.46795 153.12939 1635 ft 217 kts 150°
2026-05-07 17:27 -27.48078 153.13841 1731 ft 226 kts 150°
2026-05-07 17:27 -27.49453 153.14581 3249 ft 207 kts 167°
2026-05-07 17:28 -27.50901 153.14672 4645 ft 223 kts 189°
2026-05-07 17:28 -27.52507 153.14182 5600 ft 250 kts 194°
2026-05-07 17:28 -27.54274 153.13796 6806 ft 263 kts 193°
2026-05-07 17:28 -27.56061 153.13332 8235 ft 264 kts 202°
2026-05-07 17:29 -27.57777 153.12579 9604 ft 269 kts 201°
2026-05-07 17:29 -27.59585 153.11915 10789 ft 283 kts 200°
2026-05-07 17:29 -27.61541 153.11182 11486 ft 310 kts 200°
2026-05-07 17:29 -27.63712 153.10485 12113 ft 338 kts 199°
2026-05-07 17:30 -27.66049 153.09662 12653 ft 365 kts 199°
2026-05-07 17:30 -27.68565 153.08791 13083 ft 392 kts 199°
2026-05-07 17:30 -27.71226 153.07924 14007 ft 400 kts 198°
2026-05-07 17:30 -27.73796 153.07084 14940 ft 405 kts 199°
2026-05-07 17:31 -27.76515 153.06167 15874 ft 411 kts 199°
2026-05-07 17:31 -27.79278 153.05230 16760 ft 417 kts 199°
2026-05-07 17:31 -27.81981 153.04028 17591 ft 420 kts 210°
2026-05-07 17:31 -27.84452 153.02265 18466 ft 422 kts 218°
2026-05-07 17:32 -27.86867 153.00347 19220 ft 426 kts 218°
2026-05-07 17:32 -27.89297 152.98412 20016 ft 429 kts 218°
2026-05-07 17:32 -27.91740 152.96454 20787 ft 432 kts 219°
2026-05-07 17:32 -27.93371 152.95147 21272 ft 435 kts 219°
2026-05-07 17:33 -27.96692 152.92494 22202 ft 439 kts 220°
2026-05-07 17:33 -27.99197 152.90491 22864 ft 443 kts 220°
2026-05-07 17:33 -28.01717 152.88474 23541 ft 446 kts 220°
2026-05-07 17:33 -28.04260 152.86436 24080 ft 448 kts 221°
2026-05-07 17:34 -28.06815 152.84388 24603 ft 451 kts 221°
2026-05-07 17:34 -28.09384 152.82328 25131 ft 454 kts 221°
2026-05-07 17:34 -28.11931 152.80283 25611 ft 456 kts 222°
2026-05-07 17:34 -28.14529 152.78198 26074 ft 459 kts 222°
2026-05-07 17:35 -28.17172 152.76075 26552 ft 461 kts 222°
2026-05-07 17:35 -28.19798 152.73962 26996 ft 463 kts 223°
2026-05-07 17:35 -28.22413 152.71859 27380 ft 466 kts 223°
2026-05-07 17:35 -28.25043 152.69744 27784 ft 468 kts 223°
2026-05-07 17:36 -28.27689 152.67609 28202 ft 470 kts 223°
2026-05-07 17:36 -28.30349 152.65465 28551 ft 473 kts 224°
2026-05-07 17:36 -28.33032 152.63308 29182 ft 470 kts 224°
2026-05-07 17:36 -28.35687 152.61170 29798 ft 467 kts 224°
2026-05-07 17:37 -28.38326 152.59032 30380 ft 465 kts 225°
2026-05-07 17:37 -28.40958 152.56904 30903 ft 463 kts 225°
2026-05-07 17:37 -28.43541 152.54819 31404 ft 461 kts 225°
2026-05-07 17:37 -28.46183 152.52683 31940 ft 459 kts 225°
2026-05-07 17:38 -28.48775 152.50584 32387 ft 458 kts 225°
2026-05-07 17:38 -28.51365 152.48484 32905 ft 456 kts 226°
2026-05-07 17:38 -28.53912 152.46422 33448 ft 454 kts 226°
2026-05-07 17:38 -28.56480 152.44341 33994 ft 452 kts 226°
2026-05-07 17:39 -28.59035 152.42270 34485 ft 450 kts 226°
2026-05-07 17:39 -28.61610 152.40177 34918 ft 449 kts 226°
2026-05-07 17:39 -28.64142 152.38117 35337 ft 448 kts 227°
2026-05-07 17:39 -28.66680 152.36053 35757 ft 447 kts 227°
2026-05-07 17:40 -28.69207 152.34001 36178 ft 446 kts 227°
2026-05-07 17:40 -28.71695 152.31977 36616 ft 444 kts 227°
2026-05-07 17:40 -28.74207 152.29928 37029 ft 443 kts 227°
2026-05-07 17:40 -28.76715 152.27884 37522 ft 443 kts 227°
2026-05-07 17:41 -28.79217 152.25846 37921 ft 442 kts 228°
2026-05-07 17:41 -28.81717 152.23805 38350 ft 441 kts 228°
2026-05-07 17:41 -28.84195 152.21782 38763 ft 441 kts 228°
2026-05-07 17:41 -28.86683 152.19751 39110 ft 440 kts 228°
2026-05-07 17:42 -28.89172 152.17715 39405 ft 440 kts 228°
2026-05-07 17:42 -28.91661 152.15680 39735 ft 440 kts 228°
2026-05-07 17:42 -28.94148 152.13644 39992 ft 441 kts 228°
2026-05-07 17:42 -28.96636 152.11604 40168 ft 444 kts 228°
2026-05-07 17:43 -28.99144 152.09550 40271 ft 448 kts 227°
2026-05-07 17:43 -29.01687 152.07463 40233 ft 449 kts 227°
2026-05-07 17:43 -29.06739 152.03328 40238 ft 445 kts 228°
2026-05-07 17:44 -29.11756 151.99198 40236 ft 444 kts 228°
2026-05-07 17:44 -29.16778 151.95071 40243 ft 445 kts 228°
2026-05-07 17:45 -29.21805 151.90930 40240 ft 444 kts 228°
2026-05-07 17:45 -29.26790 151.86820 40247 ft 441 kts 228°
2026-05-07 17:46 -29.30932 151.83398 40243 ft 442 kts 228°
2026-05-07 17:46 -29.35927 151.79273 40254 ft 442 kts 228°
2026-05-07 17:47 -29.40911 151.75147 40252 ft 442 kts 228°
2026-05-07 17:47 -29.45906 151.71009 40269 ft 443 kts 228°
2026-05-07 17:48 -29.50892 151.66882 40264 ft 443 kts 226°
2026-05-07 17:48 -29.56310 151.63243 40266 ft 453 kts 222°
2026-05-07 17:49 -29.61796 151.59678 40251 ft 453 kts 222°
2026-05-07 17:49 -29.67303 151.56104 40266 ft 455 kts 221°
2026-05-07 17:50 -29.72806 151.52528 40270 ft 453 kts 221°
2026-05-07 17:50 -29.78289 151.48956 40274 ft 453 kts 221°
2026-05-07 17:51 -29.83775 151.45380 40276 ft 453 kts 221°
2026-05-07 17:51 -29.89274 151.41789 40272 ft 455 kts 221°
2026-05-07 17:52 -29.94777 151.38195 40275 ft 454 kts 221°
2026-05-07 17:52 -30.00272 151.34598 40275 ft 454 kts 221°
2026-05-07 17:53 -30.05761 151.31002 40284 ft 454 kts 221°
2026-05-07 17:53 -30.11140 151.27472 40284 ft 454 kts 221°
2026-05-07 17:54 -30.16746 151.23790 40285 ft 455 kts 221°
2026-05-07 17:54 -30.22246 151.20172 40285 ft 455 kts 221°
2026-05-07 17:55 -30.27737 151.16555 40294 ft 455 kts 221°
2026-05-07 17:55 -30.30493 151.14713 40081 ft 459 kts 210°
2026-05-07 17:55 -30.33237 151.12917 40116 ft 465 kts 211°
2026-05-07 17:56 -30.35991 151.11155 40247 ft 447 kts 221°
2026-05-07 17:56 -30.38637 151.09394 40272 ft 434 kts 222°
2026-05-07 17:56 -30.43959 151.05815 40284 ft 448 kts 221°
2026-05-07 17:57 -30.48526 151.02828 40286 ft 456 kts 221°
2026-05-07 17:57 -30.54938 150.98565 40291 ft 456 kts 221°
2026-05-07 17:58 -30.60447 150.94916 40288 ft 455 kts 221°
2026-05-07 17:58 -30.65946 150.91257 40290 ft 455 kts 221°
2026-05-07 17:59 -30.71440 150.87601 40329 ft 456 kts 220°
2026-05-07 17:59 -30.77026 150.83870 40287 ft 469 kts 220°
2026-05-07 18:00 -30.82673 150.80116 40289 ft 468 kts 220°
2026-05-07 18:00 -30.88373 150.76292 40291 ft 477 kts 220°
2026-05-07 18:01 -30.94134 150.72448 40256 ft 478 kts 220°
2026-05-07 18:01 -30.99897 150.68582 40255 ft 477 kts 220°
2026-05-07 18:02 -31.08201 150.62387 40270 ft 462 kts 230°
2026-05-07 18:03 -31.12988 150.57420 40301 ft 461 kts 230°
2026-05-07 18:03 -31.17786 150.52429 40271 ft 462 kts 230°
2026-05-07 18:04 -31.22582 150.47430 40277 ft 462 kts 230°
2026-05-07 18:04 -31.27356 150.42454 40274 ft 452 kts 230°
2026-05-07 18:05 -31.31969 150.37632 40252 ft 440 kts 231°
2026-05-07 18:05 -31.36554 150.32823 40263 ft 445 kts 230°
2026-05-07 18:06 -31.41168 150.27997 40258 ft 445 kts 231°
2026-05-07 18:06 -31.45774 150.23157 40259 ft 445 kts 231°
2026-05-07 18:07 -31.50386 150.18314 40260 ft 446 kts 231°
2026-05-07 18:07 -31.54981 150.13478 40272 ft 446 kts 230°
2026-05-07 18:08 -31.59614 150.08597 40270 ft 444 kts 230°
2026-05-07 18:08 -31.64212 150.03744 40277 ft 444 kts 230°
2026-05-07 18:09 -31.68801 149.98895 40276 ft 444 kts 230°
2026-05-07 18:09 -31.73360 149.94069 40282 ft 444 kts 230°
2026-05-07 18:10 -31.77945 149.89213 40286 ft 443 kts 230°
2026-05-07 18:10 -31.82518 149.84360 40291 ft 444 kts 230°
2026-05-07 18:11 -31.86908 149.79305 40298 ft 440 kts 233°
2026-05-07 18:11 -31.91201 149.74142 40292 ft 442 kts 233°
2026-05-07 18:12 -31.95483 149.68957 40298 ft 441 kts 233°
2026-05-07 18:12 -31.99768 149.63772 40299 ft 442 kts 233°
2026-05-07 18:13 -32.04053 149.58576 40291 ft 442 kts 233°
2026-05-07 18:13 -32.08341 149.53370 40291 ft 442 kts 233°
2026-05-07 18:14 -32.12626 149.48160 40291 ft 442 kts 233°
2026-05-07 18:14 -32.16898 149.42957 40296 ft 441 kts 233°
2026-05-07 18:15 -32.21161 149.37760 40290 ft 441 kts 233°
2026-05-07 18:15 -32.25422 149.32554 40304 ft 441 kts 233°
2026-05-07 18:16 -32.29663 149.27371 40299 ft 440 kts 233°
2026-05-07 18:16 -32.33904 149.22175 40299 ft 439 kts 233°
2026-05-07 18:17 -32.38146 149.16972 40299 ft 439 kts 233°
2026-05-07 18:17 -32.42397 149.11749 40318 ft 441 kts 233°
2026-05-07 18:18 -32.46651 149.06519 40278 ft 440 kts 233°
2026-05-07 18:18 -32.50887 149.01299 40284 ft 439 kts 233°
2026-05-07 18:19 -32.55122 148.96074 40295 ft 440 kts 233°
2026-05-07 18:19 -32.59353 148.90847 40303 ft 440 kts 233°
2026-05-07 18:20 -32.63581 148.85615 40293 ft 440 kts 232°
2026-05-07 18:20 -32.67812 148.80374 40294 ft 439 kts 233°
2026-05-07 18:21 -32.72030 148.75137 40296 ft 440 kts 232°
2026-05-07 18:21 -32.76270 148.69869 40292 ft 442 kts 232°
2026-05-07 18:22 -32.80486 148.64622 40306 ft 441 kts 232°
2026-05-07 18:22 -32.84710 148.59358 40310 ft 439 kts 232°
2026-05-07 18:23 -32.88918 148.54104 40311 ft 438 kts 232°
2026-05-07 18:23 -32.93127 148.48842 40311 ft 439 kts 232°
2026-05-07 18:24 -32.97359 148.43544 40311 ft 443 kts 232°
2026-05-07 18:24 -33.01597 148.38231 40315 ft 442 kts 232°
2026-05-07 18:25 -33.05829 148.32917 40316 ft 441 kts 232°
2026-05-07 18:25 -33.10049 148.27610 40313 ft 441 kts 232°
2026-05-07 18:26 -33.14466 148.22501 40320 ft 447 kts 223°
2026-05-07 18:26 -33.19387 148.17965 40306 ft 448 kts 224°
2026-05-07 18:27 -33.24330 148.13403 40307 ft 449 kts 224°
2026-05-07 18:27 -33.29279 148.08831 40329 ft 450 kts 223°
2026-05-07 18:28 -33.33372 148.05043 40306 ft 446 kts 223°
2026-05-07 18:28 -33.39064 147.99766 40305 ft 445 kts 223°
2026-05-07 18:29 -33.43168 147.95958 40305 ft 446 kts 224°
2026-05-07 18:29 -33.48062 147.91409 40302 ft 445 kts 223°
2026-05-07 18:30 -33.52955 147.86856 40300 ft 445 kts 223°
2026-05-07 18:30 -33.57846 147.82296 40297 ft 445 kts 223°
2026-05-07 18:31 -33.62692 147.77773 40300 ft 445 kts 223°
2026-05-07 18:31 -33.67571 147.73212 40305 ft 443 kts 223°
2026-05-07 18:32 -33.72428 147.68664 40302 ft 442 kts 223°
2026-05-07 18:32 -33.77218 147.64172 40291 ft 443 kts 223°
2026-05-07 18:33 -33.82165 147.59526 40294 ft 447 kts 223°
2026-05-07 18:33 -33.87058 147.54927 40295 ft 447 kts 223°
2026-05-07 18:34 -33.91950 147.50318 40296 ft 447 kts 223°
2026-05-07 18:34 -33.96842 147.45704 40296 ft 447 kts 223°
2026-05-07 18:35 -34.01728 147.41089 40298 ft 443 kts 223°
2026-05-07 18:35 -34.06559 147.36518 40290 ft 441 kts 223°
2026-05-07 18:36 -34.11386 147.31943 40286 ft 442 kts 223°
2026-05-07 18:36 -34.16159 147.27415 40279 ft 438 kts 223°
2026-05-07 18:37 -34.20912 147.22899 40296 ft 435 kts 223°
2026-05-07 18:37 -34.25687 147.18352 40298 ft 439 kts 223°
2026-05-07 18:38 -34.30499 147.13767 40301 ft 440 kts 223°
2026-05-07 18:38 -34.35284 147.09200 40290 ft 439 kts 223°
2026-05-07 18:39 -34.40075 147.04619 40292 ft 439 kts 223°
2026-05-07 18:39 -34.44862 147.00036 40287 ft 438 kts 223°
2026-05-07 18:40 -34.49636 146.95458 40282 ft 438 kts 223°
2026-05-07 18:40 -34.54405 146.90879 40284 ft 437 kts 223°
2026-05-07 18:41 -34.59153 146.86312 40284 ft 436 kts 223°
2026-05-07 18:41 -34.63909 146.81732 40275 ft 437 kts 223°
2026-05-07 18:42 -34.68670 146.77138 40282 ft 438 kts 223°
2026-05-07 18:42 -34.73428 146.72542 40288 ft 435 kts 223°
2026-05-07 18:43 -34.77358 146.68740 40280 ft 434 kts 223°
2026-05-07 18:45 -34.87864 146.58553 40266 ft 434 kts 223°
2026-05-07 18:45 -34.92572 146.53975 40268 ft 434 kts 223°
2026-05-07 18:46 -34.97297 146.49376 40264 ft 435 kts 223°
2026-05-07 18:47 -35.06805 146.40099 40272 ft 432 kts 223°
2026-05-07 18:47 -35.11487 146.35519 40266 ft 432 kts 223°
2026-05-07 18:48 -35.16177 146.30925 39684 ft 432 kts 222°
2026-05-07 18:48 -35.18488 146.28653 40343 ft 433 kts 221°
2026-05-07 18:48 -35.20812 146.26386 40267 ft 419 kts 222°
2026-05-07 18:49 -35.25283 146.21984 40257 ft 419 kts 222°
2026-05-07 18:49 -35.29911 146.17430 40267 ft 434 kts 222°
2026-05-07 18:50 -35.34609 146.12804 40268 ft 436 kts 221°
2026-05-07 18:50 -35.39333 146.08140 40272 ft 436 kts 221°
2026-05-07 18:51 -35.44044 146.03485 40251 ft 435 kts 222°
2026-05-07 18:51 -35.48753 145.98822 40258 ft 436 kts 222°
2026-05-07 18:52 -35.53483 145.94133 40257 ft 437 kts 222°
2026-05-07 18:52 -35.58202 145.89446 40254 ft 436 kts 222°
2026-05-07 18:53 -35.62909 145.84765 40261 ft 435 kts 222°
2026-05-07 18:53 -35.67605 145.80085 40265 ft 435 kts 221°
2026-05-07 18:54 -35.72309 145.75392 40263 ft 436 kts 221°
2026-05-07 18:54 -35.77025 145.70678 40254 ft 437 kts 221°
2026-05-07 18:55 -35.81747 145.65952 40272 ft 438 kts 221°
2026-05-07 18:55 -35.86474 145.61213 40268 ft 439 kts 221°
2026-05-07 18:56 -35.91212 145.56455 40269 ft 439 kts 221°
2026-05-07 18:56 -35.95945 145.51695 40266 ft 438 kts 221°
2026-05-07 18:57 -36.00659 145.46945 40271 ft 438 kts 221°
2026-05-07 18:57 -36.05374 145.42188 40267 ft 438 kts 221°
2026-05-07 18:58 -36.10064 145.37449 40234 ft 431 kts 221°
2026-05-07 18:58 -36.12384 145.35101 40047 ft 429 kts 220°
2026-05-07 18:58 -36.14686 145.32769 39867 ft 427 kts 220°
2026-05-07 18:58 -36.16980 145.30445 39616 ft 427 kts 220°
2026-05-07 18:59 -36.19264 145.28129 39381 ft 426 kts 220°
2026-05-07 18:59 -36.21558 145.25801 39104 ft 426 kts 220°
2026-05-07 18:59 -36.23848 145.23474 38634 ft 430 kts 220°
2026-05-07 18:59 -36.26163 145.21121 38242 ft 431 kts 220°
2026-05-07 19:00 -36.28436 145.18807 38068 ft 429 kts 219°
2026-05-07 19:00 -36.30327 145.16883 37951 ft 425 kts 219°
2026-05-07 19:00 -36.32518 145.14651 37597 ft 426 kts 219°
2026-05-07 19:00 -36.34807 145.12318 37200 ft 428 kts 219°
2026-05-07 19:01 -36.37109 145.09968 36808 ft 429 kts 219°
2026-05-07 19:01 -36.39415 145.07614 36394 ft 431 kts 219°
2026-05-07 19:01 -36.41722 145.05256 36014 ft 432 kts 219°
2026-05-07 19:01 -36.44042 145.02883 35786 ft 430 kts 218°
2026-05-07 19:02 -36.46336 145.00534 35410 ft 430 kts 218°
2026-05-07 19:02 -36.48648 144.98167 34830 ft 435 kts 218°
2026-05-07 19:02 -36.50990 144.95766 34370 ft 438 kts 218°
2026-05-07 19:02 -36.53346 144.93348 33567 ft 438 kts 218°
2026-05-07 19:03 -36.55676 144.90955 32694 ft 432 kts 218°
2026-05-07 19:03 -36.57200 144.89387 32125 ft 428 kts 218°
2026-05-07 19:03 -36.59473 144.87051 31206 ft 424 kts 218°
2026-05-07 19:03 -36.61746 144.84713 30248 ft 421 kts 218°
2026-05-07 19:04 -36.63990 144.82402 29252 ft 417 kts 218°
2026-05-07 19:04 -36.66215 144.80108 28291 ft 415 kts 218°
2026-05-07 19:04 -36.68436 144.77817 27344 ft 414 kts 219°
2026-05-07 19:04 -36.70637 144.75546 26417 ft 409 kts 219°
2026-05-07 19:05 -36.72803 144.73308 25496 ft 404 kts 219°
2026-05-07 19:05 -36.74946 144.71136 24623 ft 398 kts 216°
2026-05-07 19:05 -36.77270 144.69321 23719 ft 394 kts 209°
2026-05-07 19:05 -36.79767 144.67963 22831 ft 389 kts 201°
2026-05-07 19:06 -36.82358 144.67089 21946 ft 386 kts 194°
2026-05-07 19:06 -36.87684 144.66777 19995 ft 383 kts 177°
2026-05-07 19:06 -36.90294 144.67299 19211 ft 379 kts 175°
2026-05-07 19:07 -36.92895 144.67852 18348 ft 377 kts 175°
2026-05-07 19:07 -36.95450 144.68424 17504 ft 369 kts 174°
2026-05-07 19:07 -36.97956 144.68989 16684 ft 364 kts 175°
2026-05-07 19:07 -37.00449 144.69537 15879 ft 363 kts 175°
2026-05-07 19:08 -37.02909 144.70076 15085 ft 361 kts 175°
2026-05-07 19:08 -37.05355 144.70620 14280 ft 353 kts 175°
2026-05-07 19:08 -37.07760 144.71156 13476 ft 349 kts 175°
2026-05-07 19:08 -37.10135 144.71680 12720 ft 347 kts 175°
2026-05-07 19:09 -37.12493 144.72202 11952 ft 340 kts 175°
2026-05-07 19:09 -37.14796 144.72717 11299 ft 330 kts 175°
2026-05-07 19:09 -37.16988 144.73209 10904 ft 311 kts 175°
2026-05-07 19:09 -37.19023 144.73716 10803 ft 287 kts 173°
2026-05-07 19:10 -37.20904 144.74252 10696 ft 266 kts 173°
2026-05-07 19:10 -37.22647 144.74729 10583 ft 247 kts 174°
2026-05-07 19:10 -37.24275 144.75155 10478 ft 235 kts 175°
2026-05-07 19:10 -37.25902 144.75576 10367 ft 242 kts 175°
2026-05-07 19:11 -37.27537 144.76009 10068 ft 236 kts 174°
2026-05-07 19:11 -37.29143 144.76440 9772 ft 238 kts 174°
2026-05-07 19:11 -37.30768 144.76873 9493 ft 239 kts 175°
2026-05-07 19:11 -37.32390 144.77305 9214 ft 236 kts 175°
2026-05-07 19:12 -37.33976 144.77665 8921 ft 229 kts 179°
2026-05-07 19:12 -37.35567 144.77930 8676 ft 231 kts 178°
2026-05-07 19:12 -37.37163 144.78219 8456 ft 232 kts 178°
2026-05-07 19:12 -37.38761 144.78506 8240 ft 232 kts 178°
2026-05-07 19:13 -37.40354 144.78788 8147 ft 228 kts 178°
2026-05-07 19:13 -37.41948 144.79066 8003 ft 232 kts 178°
2026-05-07 19:13 -37.43543 144.79348 7793 ft 232 kts 178°
2026-05-07 19:13 -37.45136 144.79631 7574 ft 227 kts 178°
2026-05-07 19:14 -37.46672 144.79928 7361 ft 226 kts 176°
2026-05-07 19:14 -37.48236 144.80280 7125 ft 228 kts 177°
2026-05-07 19:14 -37.49742 144.80596 6893 ft 227 kts 177°
2026-05-07 19:14 -37.51353 144.80941 6645 ft 227 kts 176°
2026-05-07 19:15 -37.52911 144.81308 6407 ft 230 kts 173°
2026-05-07 19:15 -37.54394 144.82166 6150 ft 241 kts 154°
2026-05-07 19:15 -37.55593 144.83667 5897 ft 249 kts 135°
2026-05-07 19:15 -37.56321 144.85688 5651 ft 261 kts 113°
2026-05-07 19:16 -37.56525 144.87994 5405 ft 266 kts 102°
2026-05-07 19:16 -37.56623 144.90288 5144 ft 254 kts 101°
2026-05-07 19:16 -37.56730 144.92498 4900 ft 255 kts 102°
2026-05-07 19:16 -37.56863 144.94720 4647 ft 254 kts 102°
2026-05-07 19:17 -37.56982 144.96922 4393 ft 251 kts 102°
2026-05-07 19:17 -37.57122 144.99134 4022 ft 250 kts 107°
2026-05-07 19:17 -37.57761 145.01053 3608 ft 225 kts 134°
2026-05-07 19:17 -37.58812 145.02357 3188 ft 202 kts 156°
2026-05-07 19:18 -37.60039 145.03046 2813 ft 189 kts 175°
2026-05-07 19:18 -37.61319 145.03187 2541 ft 178 kts 192°
2026-05-07 19:18 -37.62507 145.03062 2535 ft 168 kts 193°
2026-05-07 19:18 -37.63670 145.02952 2530 ft 166 kts 193°
2026-05-07 19:19 -37.64816 145.02830 2528 ft 161 kts 197°
2026-05-07 19:19 -37.65812 145.02297 2512 ft 155 kts 218°
2026-05-07 19:19 -37.66559 145.01339 2533 ft 153 kts 235°
2026-05-07 19:19 -37.66918 145.00087 2527 ft 152 kts 257°
2026-05-07 19:20 -37.66977 144.98751 2532 ft 155 kts 264°
2026-05-07 19:20 -37.66936 144.97389 2541 ft 157 kts 265°
2026-05-07 19:20 -37.66877 144.96010 2532 ft 158 kts 266°
2026-05-07 19:20 -37.66814 144.94635 2203 ft 146 kts 266°
2026-05-07 19:21 -37.66759 144.93467 1832 ft 119 kts 269°
2026-05-07 19:21 -37.66678 144.92453 1671 ft 114 kts 269°
2026-05-07 19:21 -37.66616 144.91467 1485 ft 115 kts 270°
2026-05-07 19:21 -37.66556 144.90444 1325 ft 119 kts 271°
2026-05-07 19:22 -37.66494 144.89402 1180 ft 121 kts 272°
2026-05-07 19:22 -37.66430 144.88316 1019 ft 125 kts 273°
2026-05-07 19:22 -37.66364 144.87224 826 ft 125 kts 273°
2026-05-07 19:22 -37.66295 144.86122 761 ft 121 kts 271°
2026-05-07 19:23 -37.66230 144.85151 508 ft 106 kts 273°
2026-05-07 19:23 -37.66209 144.84303 414 ft 81 kts 273°
2026-05-07 19:23 -37.66176 144.83870 412 ft 31 kts 275°
2026-05-07 19:23 -37.66161 144.83610 422 ft 30 kts 273°
2026-05-07 19:24 -37.66140 144.83282 413 ft 37 kts 275°
2026-05-07 19:24 -37.66156 144.83004 408 ft 31 kts 252°
2026-05-07 19:24 -37.66246 144.82758 401 ft 25 kts 234°
2026-05-07 19:24 -37.66372 144.82697 394 ft 18 kts 163°
2026-05-07 19:25 -37.66447 144.82832 391 ft 21 kts 102°
2026-05-07 19:25 -37.66458 144.83019 397 ft 21 kts 93°
2026-05-07 19:25 -37.66469 144.83196 404 ft 20 kts 95°
2026-05-07 19:25 -37.66478 144.83370 408 ft 21 kts 94°
2026-05-07 19:26 -37.66489 144.83567 405 ft 23 kts 94°
2026-05-07 19:26 -37.66504 144.83784 406 ft 26 kts 95°
2026-05-07 19:26 -37.66542 144.83949 409 ft 13 kts 151°
2026-05-07 19:26 -37.66626 144.83954 405 ft 14 kts 175°
2026-05-07 19:27 -37.66743 144.83973 399 ft 19 kts 172°
2026-05-07 19:27 -37.66892 144.84001 392 ft 23 kts 172°
2026-05-07 19:27 -37.67049 144.84046 389 ft 19 kts 147°
2026-05-07 19:27 -37.67075 144.84169 389 ft 13 kts 83°
2026-05-07 19:28 -37.67044 144.84254 391 ft 9 kts 49°
2026-05-07 19:28 -37.67014 144.84292 392 ft 4 kts 43°
2026-05-07 19:28 -37.66997 144.84312 393 ft 3 kts 44°
2026-05-07 19:28 -37.66983 144.84329 393 ft 3 kts 44°
2026-05-07 19:29 -37.66971 144.84343 389 ft 2 kts 44°
2026-05-07 19:29 -37.66964 144.84352 391 ft 0 kts 44°